QPF
0.00 0.00 0.00 0.00 0.00 0.00 0.00 0.00 0.00 0.00 0.00 0.00 0.00 0.00 0.00 0.00 0.00 0.00 0.00 0.00 0.00 0.00 0.00 0.00 0.00 0.00 0.00 0.00 0.00 0.00 0.00 0.00 -0.00 0.00 0.00 0.00 0.00 -0.00 0.00 0.00 0.00 0.00 -0.00 0.00 -0.00 0.00 0.00 -0.00 -0.00 -0.00 -0.00 0.00 -0.00 -0.00 0.00 0.00 -0.00 0.00 -0.00 0.00 -0.00 -0.00 -0.00 0.00 0.00 -0.00 0.00 -0.00 0.00
0.00 0.00 0.00 0.00 0.00 0.00 0.00 0.00 0.00 0.00 0.00 0.00 0.00 0.00 0.00 0.00 0.00 0.00 0.00 0.00 0.00 0.00 0.00 0.00 0.00 0.00 0.00 0.00 0.00 0.00 0.00 0.00 0.00 0.00 0.00 -0.00 0.00 -0.00 -0.00 0.00 0.00 -0.00 -0.00 0.00 0.00 -0.00 -0.00 -0.00 -0.00 -0.00 -0.00 0.00 -0.00 0.00 0.00 -0.00 -0.00 0.00 -0.00 -0.00 0.00 -0.00 0.00 -0.00 -0.00 -0.00 0.00 0.00 0.00
0.00 0.00 0.00 0.00 0.00 0.00 0.00 0.00 0.00 0.00 0.00 0.00 0.00 0.00 0.00 0.00 0.00 0.00 0.00 0.00 0.00 0.00 0.00 0.00 0.00 0.00 0.00 0.00 0.00 0.00 0.00 0.00 0.00 0.00 0.00 0.00 0.00 -0.00 -0.00 -0.00 0.00 -0.00 -0.00 0.00 -0.00 -0.00 0.00 -0.00 -0.00 0.00 -0.00 -0.00 0.00 -0.00 0.00 -0.00 0.00 -0.00 -0.00 0.00 0.00 -0.00 0.00 0.00 -0.00 0.00 -0.00 -0.00 0.00
0.00 0.00 0.00 0.00 0.00 0.00 0.00 0.00 0.00 0.00 0.00 0.00 0.00 0.00 0.00 0.00 0.00 0.00 0.00 0.00 0.00 0.00 0.00 0.00 0.00 0.00 0.00 0.00 0.00 0.00 0.00 0.00 0.00 0.00 0.00 0.00 0.00 0.00 0.00 -0.00 0.00 -0.00 -0.00 -0.00 0.00 -0.00 -0.00 0.00 -0.00 -0.00 0.00 -0.00 -0.00 -0.00 0.00 0.00 -0.00 0.00 -0.00 -0.00 0.00 0.00 0.00 0.00 0.00 0.00 0.00 -0.00 0.00
0.00 0.00 0.00 0.00 0.00 0.00 0.00 0.00 0.00 0.00 0.00 0.00 0.00 0.00 0.00 0.00 0.00 0.00 0.00 0.00 0.00 0.00 0.00 0.00 0.00 0.00 0.00 0.00 0.00 0.00 0.00 0.00 0.00 0.00 0.00 0.00 0.00 0.00 0.00 0.00 0.00 0.00 -0.00 0.00 0.00 -0.00 0.00 0.00 0.00 -0.00 -0.00 -0.00 0.00 0.00 -0.00 0.00 -0.00 0.00 0.00 0.00 -0.00 -0.00 0.00 -0.00 0.00 -0.00 0.00 -0.00 0.00
0.00 0.00 0.00 0.00 0.00 0.00 0.00 0.00 0.00 0.00 0.00 0.00 0.00 0.00 0.00 0.00 0.00 0.00 0.00 0.00 0.00 0.00 0.00 0.00 0.00 0.00 0.00 0.00 0.00 0.00 0.00 0.00 0.00 0.00 0.00 0.00 0.00 0.00 0.00 0.00 0.00 0.00 0.00 0.00 0.00 -0.00 -0.00 0.00 -0.00 0.00 0.00 0.00 0.00 0.00 0.00 0.00 0.00 0.00 0.00 -0.00 0.00 -0.00 0.00 0.00 0.00 -0.00 0.00 -0.00 0.00
0.00 0.00 0.00 0.00 0.00 0.00 0.00 0.00 0.00 0.00 0.00 0.00 0.00 0.00 0.00 0.00 0.00 0.00 0.00 0.00 0.00 0.00 0.00 0.00 0.00 0.00 0.00 0.00 0.00 0.00 0.00 0.00 0.00 0.00 0.00 0.00 0.00 0.00 0.00 0.00 0.00 0.00 0.00 0.00 0.00 0.00 0.00 0.00 -0.00 0.00 0.00 0.00 0.00 0.00 -0.00 -0.00 0.00 0.00 0.00 -0.00 0.00 0.00 -0.00 0.00 0.00 -0.00 0.00 0.00 -0.00
0.00 0.00 0.00 0.00 0.00 0.00 0.00 0.00 0.00 0.00 0.00 0.00 0.00 0.00 0.00 0.00 0.00 0.00 0.00 0.00 0.00 0.00 0.00 0.00 0.00 0.00 0.00 0.00 0.00 0.00 0.00 0.00 0.00 0.00 0.00 0.00 0.00 0.00 0.00 0.00 0.00 0.00 0.00 0.00 0.00 0.00 0.00 0.00 0.00 0.00 0.00 0.00 0.00 0.00 0.00 -0.00 0.00 -0.00 -0.00 0.00 -0.00 -0.00 0.00 0.00 -0.00 0.00 0.00 -0.00 0.00
0.00 0.00 0.00 0.00 0.00 0.00 0.00 0.00 0.00 0.00 0.00 0.00 0.00 0.00 0.00 0.00 0.00 0.00 0.00 0.00 0.00 0.00 0.00 0.00 0.00 0.00 0.00 0.00 0.00 0.00 0.00 0.00 0.00 0.00 0.00 0.00 0.00 0.00 0.00 0.00 0.00 0.00 0.00 0.00 0.00 0.00 0.00 0.00 0.00 0.00 0.00 0.00 -0.00 0.00 0.00 0.00 -0.00 -0.00 -0.00 -0.00 0.00 -0.00 -0.00 0.00 -0.00 0.00 0.00 0.00 0.00
0.00 0.00 0.00 0.00 0.00 0.00 0.00 0.00 0.00 0.00 0.00 0.00 0.00 0.00 0.00 0.00 0.00 0.00 0.00 0.00 0.00 0.00 0.00 0.00 0.00 0.00 0.00 0.00 0.00 0.00 0.00 0.00 0.00 0.00 0.00 0.00 0.00 0.00 0.00 0.00 0.00 0.00 0.00 0.00 0.00 0.00 0.00 0.00 0.00 0.00 0.00 0.00 0.00 0.00 -0.00 0.00 0.00 0.00 -0.00 -0.00 -0.00 -0.00 0.00 0.00 -0.00 0.00 -0.00 0.00 0.00
0.00 0.00 0.00 0.00 0.00 0.00 0.00 0.00 0.00 0.00 0.00 0.00 0.00 0.00 0.00 0.00 0.00 0.00 0.00 0.00 0.00 0.00 0.00 0.00 0.00 0.00 0.00 0.00 0.00 0.00 0.00 0.00 0.00 0.00 0.00 0.00 0.00 0.00 0.00 0.00 0.00 0.00 0.00 0.00 0.00 0.00 0.00 0.00 0.00 0.00 0.00 0.00 0.00 0.00 0.00 0.00 0.00 0.00 0.00 0.00 0.00 -0.00 0.00 -0.00 -0.00 0.00 0.00 -0.00 0.00
0.00 0.00 0.00 0.00 0.00 0.00 0.00 0.00 0.00 0.00 0.00 0.00 0.00 0.00 0.00 0.00 0.00 0.00 0.00 0.00 0.00 0.00 0.00 0.00 0.00 0.00 0.00 0.00 0.00 0.00 0.00 0.00 0.00 0.00 0.00 0.00 0.00 0.00 0.00 0.00 0.00 0.00 0.00 0.00 0.00 0.00 0.00 0.00 0.00 0.00 0.00 0.00 0.00 0.00 0.00 0.00 0.00 0.00 0.00 0.00 0.00 0.00 0.00 0.00 0.00 0.00 0.00 -0.00 -0.00
0.00 0.00 0.00 0.00 0.00 0.00 0.00 0.00 0.00 0.00 0.00 0.00 0.00 0.00 0.00 0.00 0.00 0.00 0.00 0.00 0.00 0.00 0.00 0.00 0.00 0.00 0.00 0.00 0.00 0.00 0.00 0.00 0.00 0.00 0.00 0.00 0.00 0.00 0.00 0.00 0.00 0.00 0.00 0.00 0.00 0.00 0.00 0.00 0.00 0.00 0.00 0.00 0.00 0.00 0.00 0.00 0.00 0.00 0.00 0.00 0.00 0.00 0.00 0.00 0.00 -0.00 0.00 -0.00 0.00
0.00 0.00 0.00 0.00 0.00 0.00 0.00 0.00 0.00 0.00 0.00 0.00 0.00 0.00 0.00 0.00 0.00 0.00 0.00 0.00 0.00 0.00 0.00 0.00 0.00 0.00 0.00 0.00 0.00 0.00 0.00 0.00 0.00 0.00 0.00 0.00 0.00 0.00 0.00 0.00 0.00 0.00 0.00 0.00 0.00 0.00 0.00 0.00 0.00 0.00 0.00 0.00 0.00 0.00 0.00 0.00 0.00 0.00 0.00 0.00 0.00 0.00 0.00 0.00 0.00 -0.00 0.00 0.00 -0.00
0.00 0.00 0.00 0.00 0.00 0.00 0.00 0.00 0.00 0.00 0.00 0.00 0.00 0.00 0.00 0.00 0.00 0.00 0.00 0.00 0.00 0.00 0.00 0.00 0.00 0.00 0.00 0.00 0.00 0.00 0.00 0.00 0.00 0.00 0.00 0.00 0.00 0.00 0.00 0.00 0.00 0.00 0.00 0.00 0.00 0.00 0.00 0.00 0.00 0.00 0.00 0.00 0.00 0.00 0.00 0.00 0.00 0.00 0.00 0.00 0.00 0.00 0.00 0.00 0.00 0.00 -0.00 0.00 -0.00
0.00 0.00 0.00 0.00 0.00 0.00 0.00 0.00 0.00 0.00 0.00 0.00 0.00 0.00 0.00 0.00 0.00 0.00 0.00 0.00 0.00 0.00 0.00 0.00 0.00 0.00 0.00 0.00 0.00 0.00 0.00 0.00 0.00 0.00 0.00 0.00 0.00 0.00 0.00 0.00 0.00 0.00 0.00 0.00 0.00 0.00 0.00 0.00 0.00 0.00 0.00 0.00 0.00 0.00 0.00 0.00 0.00 0.00 0.00 0.00 0.00 0.00 0.00 0.00 0.00 0.00 0.00 -0.00 0.00
0.00 0.00 0.00 0.00 0.00 0.00 0.00 0.00 0.00 0.00 0.00 0.00 0.00 0.00 0.00 0.00 0.00 0.00 0.00 0.00 0.00 0.00 0.00 0.00 0.00 0.00 0.00 0.00 0.00 0.00 0.00 0.00 0.00 0.00 0.00 0.00 0.00 0.00 0.00 0.00 0.00 0.00 0.00 0.00 0.00 0.00 0.00 0.00 0.00 0.00 0.00 0.00 0.00 0.00 0.00 0.00 0.00 0.00 0.00 0.00 0.00 0.00 0.00 0.00 0.00 0.00 0.00 0.00 0.00
0.00 0.00 0.00 0.00 0.00 0.00 0.00 0.00 0.00 0.00 0.00 0.00 0.00 0.00 0.00 0.00 0.00 0.00 0.00 0.00 0.00 0.00 0.00 0.00 0.00 0.00 0.00 0.00 0.00 0.00 0.00 0.00 0.00 0.00 0.00 0.00 0.00 0.00 0.00 0.00 0.00 0.00 0.00 0.00 0.00 0.00 0.00 0.00 0.00 0.00 0.00 0.00 0.00 0.00 0.00 0.00 0.00 0.00 0.00 0.00 0.00 0.00 0.00 0.00 0.00 0.00 0.00 0.00 0.00
0.00 0.00 0.00 0.00 0.00 0.00 0.00 0.00 0.00 0.00 0.00 0.00 0.00 0.00 0.00 0.00 0.00 0.00 0.00 0.00 0.00 0.00 0.00 0.00 0.00 0.00 0.00 0.00 0.00 0.00 0.00 0.00 0.00 0.00 0.00 0.00 0.00 0.00 0.00 0.00 0.00 0.00 0.00 0.00 0.00 0.00 0.00 0.00 0.00 0.00 0.00 0.00 0.00 0.00 0.00 0.00 0.00 0.00 0.00 0.00 0.00 0.00 0.00 0.00 0.00 0.00 0.00 0.00 0.00
0.00 0.00 0.00 0.00 0.00 0.00 0.00 0.00 0.00 0.00 0.00 0.00 0.00 0.00 0.00 0.00 0.00 0.00 0.00 0.00 0.00 0.00 0.00 0.00 0.00 0.00 0.00 0.00 0.00 0.00 0.00 0.00 0.00 0.00 0.00 0.00 0.00 0.00 0.00 0.00 0.00 0.00 0.00 0.00 0.00 0.00 0.00 0.00 0.00 0.00 0.00 0.00 0.00 0.00 0.00 0.00 0.00 0.00 0.00 0.00 0.00 0.00 0.00 0.00 0.00 0.00 0.00 0.00 0.00
0.00 0.00 0.00 0.00 0.00 0.00 0.00 0.00 0.00 0.00 0.00 0.00 0.00 0.00 0.00 0.00 0.00 0.00 0.00 0.00 0.00 0.00 0.00 0.00 0.00 0.00 0.00 0.00 0.00 0.00 0.00 0.00 0.00 0.00 0.00 0.00 0.00 0.00 0.00 0.00 0.00 0.00 0.00 0.00 0.00 0.00 0.00 0.00 0.00 0.00 0.00 0.00 0.00 0.00 0.00 0.00 0.00 0.00 0.00 0.00 0.00 0.00 0.00 0.00 0.00 0.00 0.00 0.00 0.00
0.00 0.00 0.00 0.00 0.00 0.00 0.00 0.00 0.00 0.00 0.00 0.00 0.00 0.00 0.00 0.00 0.00 0.00 0.00 0.00 0.00 0.00 0.00 0.00 0.00 0.00 0.00 0.00 0.00 0.00 0.00 0.00 0.00 0.00 0.00 0.00 0.00 0.00 0.00 0.00 0.00 0.00 0.00 0.00 0.00 0.00 0.00 0.00 0.00 0.00 0.00 0.00 0.00 0.00 0.00 0.00 0.00 0.00 0.00 0.00 0.00 0.00 0.00 0.00 0.00 0.00 0.00 0.00 0.00
0.00 0.00 0.00 0.00 0.00 0.00 0.00 0.00 0.00 0.00 0.00 0.00 0.00 0.00 0.00 0.00 0.00 0.00 0.00 0.00 0.00 0.00 0.00 0.00 0.00 0.00 0.00 0.00 0.00 0.00 0.00 0.00 0.00 0.00 0.00 0.00 0.00 0.00 0.00 0.00 0.00 0.00 0.00 0.00 0.00 0.00 0.00 0.00 0.00 0.00 0.00 0.00 0.00 0.00 0.00 0.00 0.00 0.00 0.00 0.00 0.00 0.00 0.00 0.00 0.00 0.00 0.00 0.00 0.00
0.00 0.00 0.00 0.00 0.00 0.00 0.00 0.00 0.00 0.00 0.00 0.00 0.00 0.00 0.00 0.00 0.00 0.00 0.00 0.00 0.00 0.00 0.00 0.00 0.00 0.00 0.00 0.00 0.00 0.00 0.00 0.00 0.00 0.00 0.00 0.00 0.00 0.00 0.00 0.00 0.00 0.00 0.00 0.00 0.00 0.00 0.00 0.00 0.00 0.00 0.00 0.00 0.00 0.00 0.00 0.00 0.00 0.00 0.00 0.00 0.00 0.00 0.00 0.00 0.00 0.00 0.00 0.00 0.00
0.00 0.00 0.00 0.00 0.00 0.00 0.00 0.00 0.00 0.00 0.00 0.00 0.00 0.00 0.00 0.00 0.00 0.00 0.00 0.00 0.00 0.00 0.00 0.00 0.00 0.00 0.00 0.00 0.00 0.00 0.00 0.00 0.00 0.00 0.00 0.00 0.00 0.00 0.00 0.00 0.00 0.00 0.00 0.00 0.00 0.00 0.00 0.00 0.00 0.00 0.00 0.00 0.00 0.00 0.00 0.00 0.00 0.00 0.00 0.00 0.00 0.00 0.00 0.00 0.00 0.00 0.00 0.00 0.00
0.00 0.00 0.00 0.00 0.00 0.00 0.00 0.00 0.00 0.00 0.00 0.00 0.00 0.00 0.00 0.00 0.00 0.00 0.00 0.00 0.00 0.00 0.00 0.00 0.00 0.00 0.00 0.00 0.00 0.00 0.00 0.00 0.00 0.00 0.00 0.00 0.00 0.00 0.00 0.00 0.00 0.00 0.00 0.00 0.00 0.00 0.00 0.00 0.00 0.00 0.00 0.00 0.00 0.00 0.00 0.00 0.00 0.00 0.00 0.00 0.00 0.00 0.00 0.00 0.00 0.00 0.00 0.00 0.00
0.00 0.00 0.00 0.00 0.00 0.00 0.00 0.00 0.00 0.00 0.00 0.00 0.00 0.00 0.00 0.00 0.00 0.00 0.00 0.00 0.00 0.00 0.00 0.00 0.00 0.00 0.00 0.00 0.00 0.00 0.00 0.00 0.00 0.00 0.00 0.00 0.00 0.00 0.00 0.00 0.00 0.00 0.00 0.00 0.00 0.00 0.00 0.00 0.00 0.00 0.00 0.00 0.00 0.00 0.00 0.00 0.00 0.00 0.00 0.00 0.00 0.00 0.00 0.00 0.00 0.00 0.00 0.00 0.00
0.00 0.00 0.00 0.00 0.00 0.00 0.00 0.00 0.00 0.00 0.00 0.00 0.00 0.00 0.00 0.00 0.00 0.00 0.00 0.00 0.00 0.00 0.00 0.00 0.00 0.00 0.00 0.00 0.00 0.00 0.00 0.00 0.00 0.00 0.00 0.00 0.00 0.00 0.00 0.00 0.00 0.00 0.00 0.00 0.00 0.00 0.00 0.00 0.00 0.00 0.00 0.00 0.00 0.00 0.00 0.00 0.00 0.00 0.00 0.00 0.00 0.00 0.00 0.00 0.00 0.00 0.00 0.00 0.00
0.00 0.00 0.00 0.00 0.00 0.00 0.00 0.00 0.00 0.00 0.00 0.00 0.00 0.00 0.00 0.00 0.00 0.00 0.00 0.00 0.00 0.00 0.00 0.00 0.00 0.00 0.00 0.00 0.00 0.00 0.00 0.00 0.00 0.00 0.00 0.00 0.00 0.00 0.00 0.00 0.00 0.00 0.00 0.00 0.00 0.00 0.00 0.00 0.00 0.00 0.00 0.00 0.00 0.00 0.00 0.00 0.00 0.00 0.00 0.00 0.00 0.00 0.00 0.00 0.00 0.00 0.00 0.00 0.00
0.00 0.00 0.00 0.00 0.00 0.00 0.00 0.00 0.00 0.00 0.00 0.00 0.00 0.00 0.00 0.00 0.00 0.00 0.00 0.00 0.00 0.00 0.00 0.00 0.00 0.00 0.00 0.00 0.00 0.00 0.00 0.00 0.00 0.00 0.00 0.00 0.00 0.00 0.00 0.00 0.00 0.00 0.00 0.00 0.00 0.00 0.00 0.00 0.00 0.00 0.00 0.00 0.00 0.00 0.00 0.00 0.00 0.00 0.00 0.00 0.00 0.00 0.00 0.00 0.00 0.00 0.00 0.00 0.00
0.00 0.00 0.00 0.00 0.00 0.00 0.00 0.00 0.00 0.00 0.00 0.00 0.00 0.00 0.00 0.00 0.00 0.00 0.00 0.00 0.00 0.00 0.00 0.00 0.00 0.00 0.00 0.00 0.00 0.00 0.00 0.00 0.00 0.00 0.00 0.00 0.00 0.00 0.00 0.00 0.00 0.00 0.00 0.00 0.00 0.00 0.00 0.00 0.00 0.00 0.00 0.00 0.00 0.00 0.00 0.00 0.00 0.00 0.00 0.00 0.00 0.00 0.00 0.00 0.00 0.00 0.00 0.00 0.00
0.00 0.00 0.00 0.00 0.00 0.00 0.00 0.00 0.00 0.00 0.00 0.00 0.00 0.00 0.00 0.00 0.00 0.00 0.00 0.00 0.00 0.00 0.00 0.00 0.00 0.00 0.00 0.00 0.00 0.00 0.00 0.00 0.00 0.00 0.00 0.00 0.00 0.00 0.00 0.00 0.00 0.00 0.00 0.00 0.00 0.00 0.00 0.00 0.00 0.00 0.00 0.00 0.00 0.00 0.00 0.00 0.00 0.00 0.00 0.00 0.00 0.00 0.00 0.00 0.00 0.00 0.00 -0.00 0.00
0.00 0.00 0.00 0.00 0.00 0.00 0.00 0.00 0.00 0.00 0.00 0.00 0.00 0.00 0.00 0.00 0.00 0.00 0.00 0.00 0.00 0.00 0.00 0.00 0.00 0.00 0.00 0.00 0.00 0.00 0.00 0.00 0.00 0.00 0.00 0.00 0.00 0.00 0.00 0.00 0.00 0.00 0.00 0.00 0.00 0.00 0.00 0.00 0.00 0.00 0.00 0.00 0.00 0.00 0.00 0.00 0.00 0.00 0.00 0.00 0.00 0.00 0.00 0.00 0.00 0.00 0.00 -0.00 0.00
0.00 0.00 0.00 0.00 0.00 0.00 0.00 0.00 0.00 0.00 0.00 0.00 0.00 0.00 0.00 0.00 0.00 0.00 0.00 0.00 0.00 0.00 0.00 0.00 0.00 0.00 0.00 0.00 0.00 0.00 0.00 0.00 0.00 0.00 0.00 0.00 0.00 0.00 0.00 0.00 0.00 0.00 0.00 0.00 0.00 0.00 0.00 0.00 0.00 0.00 0.00 0.00 0.00 0.00 0.00 0.00 0.00 0.00 0.00 0.00 0.00 0.00 0.00 0.00 0.00 0.00 0.00 -0.00 0.00
0.00 0.00 0.00 0.00 0.00 0.00 0.00 0.00 0.00 0.00 0.00 0.00 0.00 0.00 0.00 0.00 0.00 0.00 0.00 0.00 0.00 0.00 0.00 0.00 0.00 0.00 0.00 0.00 0.00 0.00 0.00 0.00 0.00 0.00 0.00 0.00 0.00 0.00 0.00 0.00 0.00 0.00 0.00 0.00 0.00 0.00 0.00 0.00 0.00 0.00 0.00 0.00 0.00 0.00 0.00 0.00 0.00 0.00 0.00 0.00 0.00 0.00 0.00 0.00 0.00 -0.00 0.00 0.00 0.00
0.00 0.00 0.00 0.00 0.00 0.00 0.00 0.00 0.00 0.00 0.00 0.00 0.00 0.00 0.00 0.00 0.00 0.00 0.00 0.00 0.00 0.00 0.00 0.00 0.00 0.00 0.00 0.00 0.00 0.00 0.00 0.00 0.00 0.00 0.00 0.00 0.00 0.00 0.00 0.00 0.00 0.00 0.00 0.00 0.00 0.00 0.00 0.00 0.00 0.00 0.00 0.00 0.00 0.00 0.00 0.00 0.00 0.00 0.00 0.00 0.00 0.00 0.00 0.00 0.00 0.00 0.00 0.00 0.00
0.00 0.00 0.00 0.00 0.00 0.00 0.00 0.00 0.00 0.00 0.00 0.00 0.00 0.00 0.00 0.00 0.00 0.00 0.00 0.00 0.00 0.00 0.00 0.00 0.00 0.00 0.00 0.00 0.00 0.00 0.00 0.00 0.00 0.00 0.00 0.00 0.00 0.00 0.00 0.00 0.00 0.00 0.00 0.00 0.00 0.00 0.00 0.00 0.00 0.00 0.00 0.00 0.00 0.00 0.00 0.00 0.00 -0.00 0.00 0.00 0.00 0.00 0.00 0.00 0.00 0.00 0.00 0.00 0.00
0.00 0.00 0.00 0.00 0.00 0.00 0.00 0.00 0.00 0.00 0.00 0.00 0.00 0.00 0.00 0.00 0.00 0.00 0.00 0.00 0.00 0.00 0.00 0.00 0.00 0.00 0.00 0.00 0.00 0.00 0.00 0.00 0.00 0.00 0.00 0.00 0.00 0.00 0.00 0.00 0.00 0.00 0.00 0.00 0.00 0.00 0.00 0.00 0.00 0.00 0.00 0.00 0.00 0.00 0.00 0.00 0.00 0.00 0.00 0.00 0.00 0.00 0.00 0.00 0.00 0.00 0.00 0.01 0.02
0.00 0.00 0.00 0.00 0.00 0.00 0.00 0.00 0.00 0.00 0.00 0.00 0.00 0.00 0.00 0.00 0.00 0.00 0.00 0.00 0.00 0.00 0.00 0.00 0.00 0.00 0.00 0.00 0.00 0.00 0.00 0.00 0.00 0.00 0.00 0.00 0.00 0.00 0.00 0.00 0.00 0.00 0.00 0.00 0.00 0.00 0.00 0.00 0.00 0.00 0.00 0.00 0.00 0.00 0.00 0.00 0.00 0.00 0.00 0.00 0.00 0.00 0.00 0.00 0.00 0.01 0.02 0.03 0.03
0.00 0.00 0.00 0.00 0.00 0.00 0.00 0.00 0.00 0.00 0.00 0.00 0.00 0.00 0.00 0.00 0.00 0.00 0.00 0.00 0.00 0.00 0.00 0.00 0.00 0.00 0.00 0.00 0.00 0.00 0.00 0.00 0.00 0.00 0.00 0.00 0.00 0.00 0.00 0.00 0.00 0.00 0.00 0.00 0.00 0.00 0.00 0.00 0.00 0.00 0.00 0.00 0.00 0.00 0.00 0.00 0.00 0.00 0.00 0.00 0.00 0.00 0.00 0.00 0.00 0.02 0.04 0.03 0.02
0.00 0.00 0.00 0.00 0.00 0.00 0.00 0.00 0.00 0.00 0.00 0.00 0.00 0.00 0.00 0.00 0.00 0.00 0.00 0.00 0.00 0.00 0.00 0.00 0.00 0.00 0.00 0.00 0.00 0.00 0.00 0.00 0.00 0.00 0.00 0.00 0.00 0.00 0.00 0.00 0.00 0.00 0.00 0.00 0.00 0.00 0.00 0.00 0.00 0.00 0.00 0.00 0.00 0.00 0.00 0.00 0.00 0.00 0.00 0.00 0.00 0.00 0.00 0.01 0.03 0.03 0.02 0.01 0.00
MSLP
1017.26 1017.26 1017.22 1017.22 1017.22 1017.26 1017.26 1017.30 1017.34 1017.34 1017.34 1017.34 1017.30 1017.30 1017.26 1017.26 1017.26 1017.26 1017.22 1017.22 1017.14 1017.10 1017.06 1016.98 1016.98 1016.98 1016.94 1016.86 1016.82 1016.70 1016.58 1016.50 1016.42 1016.34 1016.26 1016.14 1016.02 1015.98 1015.86 1015.70 1015.62 1015.46 1015.34 1015.18 1015.06 1014.90 1014.74 1014.58 1014.42 1014.22 1013.98 1013.78 1013.62 1013.46 1013.34 1013.26 1013.14 1013.02 1012.90 1012.78 1012.58 1012.38 1012.18 1012.02 1011.86 1011.66 1011.50 1011.38 1011.22
1017.50 1017.46 1017.42 1017.42 1017.42 1017.42 1017.42 1017.42 1017.46 1017.46 1017.42 1017.42 1017.42 1017.42 1017.42 1017.38 1017.42 1017.42 1017.38 1017.38 1017.38 1017.34 1017.26 1017.18 1017.14 1017.14 1017.06 1016.98 1016.90 1016.82 1016.70 1016.58 1016.50 1016.38 1016.30 1016.18 1016.10 1016.02 1015.90 1015.78 1015.66 1015.54 1015.42 1015.26 1015.14 1014.98 1014.82 1014.66 1014.50 1014.26 1014.02 1013.86 1013.70 1013.54 1013.42 1013.34 1013.26 1013.14 1012.98 1012.82 1012.62 1012.42 1012.22 1012.02 1011.86 1011.70 1011.54 1011.38 1011.26
1017.70 1017.62 1017.58 1017.58 1017.54 1017.54 1017.50 1017.54 1017.54 1017.54 1017.54 1017.54 1017.54 1017.54 1017.50 1017.50 1017.54 1017.54 1017.54 1017.54 1017.54 1017.50 1017.42 1017.34 1017.26 1017.22 1017.14 1017.06 1016.98 1016.94 1016.82 1016.70 1016.54 1016.42 1016.34 1016.26 1016.14 1016.06 1015.98 1015.86 1015.70 1015.58 1015.46 1015.34 1015.18 1015.10 1014.98 1014.74 1014.54 1014.30 1014.10 1013.94 1013.82 1013.66 1013.50 1013.42 1013.34 1013.22 1013.02 1012.82 1012.66 1012.50 1012.26 1012.06 1011.90 1011.74 1011.54 1011.42 1011.26
1017.82 1017.74 1017.70 1017.70 1017.70 1017.70 1017.70 1017.70 1017.70 1017.66 1017.62 1017.66 1017.66 1017.62 1017.62 1017.62 1017.66 1017.70 1017.66 1017.66 1017.58 1017.54 1017.54 1017.50 1017.42 1017.34 1017.26 1017.14 1017.10 1017.02 1016.90 1016.82 1016.66 1016.54 1016.42 1016.30 1016.18 1016.10 1016.02 1015.90 1015.74 1015.62 1015.50 1015.38 1015.26 1015.14 1014.98 1014.86 1014.62 1014.42 1014.22 1014.06 1013.90 1013.74 1013.58 1013.50 1013.42 1013.30 1013.14 1012.94 1012.78 1012.54 1012.34 1012.18 1011.98 1011.86 1011.62 1011.46 1011.30
1017.94 1017.90 1017.86 1017.86 1017.86 1017.90 1017.86 1017.86 1017.86 1017.82 1017.74 1017.74 1017.70 1017.70 1017.74 1017.74 1017.74 1017.74 1017.70 1017.70 1017.70 1017.70 1017.66 1017.62 1017.54 1017.46 1017.38 1017.30 1017.18 1017.06 1016.94 1016.82 1016.70 1016.54 1016.46 1016.38 1016.26 1016.14 1015.98 1015.90 1015.82 1015.70 1015.54 1015.42 1015.30 1015.18 1015.02 1014.86 1014.70 1014.50 1014.30 1014.14 1013.98 1013.86 1013.70 1013.62 1013.50 1013.34 1013.18 1013.02 1012.82 1012.62 1012.42 1012.26 1012.06 1011.86 1011.70 1011.54 1011.34
1018.06 1018.02 1018.02 1018.02 1018.02 1018.02 1018.02 1018.02 1017.98 1017.94 1017.86 1017.86 1017.86 1017.86 1017.86 1017.86 1017.90 1017.86 1017.86 1017.86 1017.82 1017.78 1017.70 1017.66 1017.58 1017.54 1017.42 1017.34 1017.22 1017.10 1016.94 1016.82 1016.70 1016.62 1016.50 1016.38 1016.26 1016.14 1016.02 1015.94 1015.86 1015.70 1015.54 1015.46 1015.30 1015.18 1015.06 1014.90 1014.70 1014.50 1014.34 1014.18 1014.02 1013.90 1013.82 1013.70 1013.54 1013.38 1013.18 1013.02 1012.82 1012.66 1012.46 1012.26 1012.14 1011.94 1011.70 1011.54 1011.34
1018.18 1018.14 1018.14 1018.14 1018.14 1018.14 1018.14 1018.14 1018.10 1018.02 1017.98 1017.98 1017.94 1017.94 1017.98 1017.98 1018.02 1018.02 1017.98 1017.94 1017.86 1017.82 1017.74 1017.70 1017.66 1017.62 1017.54 1017.42 1017.26 1017.14 1016.98 1016.86 1016.74 1016.66 1016.54 1016.42 1016.30 1016.18 1016.10 1015.98 1015.86 1015.70 1015.58 1015.46 1015.30 1015.18 1015.06 1014.94 1014.74 1014.54 1014.34 1014.26 1014.06 1013.90 1013.82 1013.74 1013.62 1013.42 1013.18 1012.98 1012.82 1012.62 1012.46 1012.26 1012.14 1011.90 1011.70 1011.46 1011.26
1018.30 1018.30 1018.26 1018.26 1018.26 1018.26 1018.26 1018.22 1018.18 1018.10 1018.02 1017.98 1017.98 1018.02 1018.06 1018.10 1018.10 1018.10 1018.02 1017.98 1017.94 1017.90 1017.86 1017.78 1017.74 1017.70 1017.62 1017.46 1017.30 1017.18 1017.02 1016.86 1016.74 1016.66 1016.54 1016.46 1016.30 1016.18 1016.06 1015.98 1015.82 1015.70 1015.62 1015.50 1015.34 1015.22 1015.10 1014.94 1014.78 1014.58 1014.42 1014.26 1014.10 1013.94 1013.82 1013.70 1013.54 1013.42 1013.18 1012.98 1012.74 1012.54 1012.42 1012.26 1012.10 1011.86 1011.62 1011.42 1011.18
1018.42 1018.42 1018.42 1018.42 1018.38 1018.38 1018.38 1018.34 1018.26 1018.22 1018.14 1018.14 1018.14 1018.14 1018.14 1018.14 1018.14 1018.14 1018.10 1018.06 1018.06 1017.98 1017.94 1017.86 1017.82 1017.70 1017.66 1017.54 1017.38 1017.26 1017.10 1016.94 1016.78 1016.70 1016.58 1016.50 1016.34 1016.22 1016.10 1015.98 1015.82 1015.70 1015.54 1015.46 1015.34 1015.22 1015.06 1014.94 1014.74 1014.62 1014.46 1014.30 1014.14 1013.94 1013.82 1013.70 1013.50 1013.34 1013.14 1012.86 1012.66 1012.42 1012.30 1012.18 1011.98 1011.74 1011.54 1011.26 1011.06
1018.54 1018.54 1018.54 1018.46 1018.50 1018.50 1018.46 1018.42 1018.38 1018.30 1018.26 1018.22 1018.18 1018.18 1018.18 1018.14 1018.18 1018.18 1018.14 1018.14 1018.14 1018.06 1017.98 1017.90 1017.86 1017.74 1017.66 1017.54 1017.42 1017.26 1017.14 1016.98 1016.86 1016.78 1016.62 1016.50 1016.38 1016.26 1016.14 1015.98 1015.86 1015.70 1015.54 1015.46 1015.34 1015.22 1015.06 1014.90 1014.70 1014.54 1014.42 1014.34 1014.14 1013.94 1013.78 1013.62 1013.42 1013.22 1013.02 1012.78 1012.54 1012.34 1012.14 1012.02 1011.86 1011.62 1011.38 1011.14 1010.98
1018.62 1018.62 1018.62 1018.62 1018.62 1018.58 1018.54 1018.50 1018.46 1018.42 1018.34 1018.26 1018.26 1018.22 1018.22 1018.22 1018.22 1018.26 1018.26 1018.26 1018.14 1018.06 1018.02 1017.98 1017.90 1017.82 1017.66 1017.54 1017.42 1017.30 1017.22 1017.10 1016.98 1016.82 1016.66 1016.54 1016.42 1016.26 1016.14 1016.02 1015.86 1015.70 1015.58 1015.46 1015.34 1015.18 1015.02 1014.82 1014.70 1014.54 1014.42 1014.26 1014.06 1013.86 1013.66 1013.50 1013.34 1013.14 1012.86 1012.70 1012.46 1012.22 1011.98 1011.78 1011.66 1011.46 1011.26 1011.06 1010.82
1018.70 1018.70 1018.70 1018.70 1018.70 1018.70 1018.62 1018.54 1018.54 1018.46 1018.42 1018.38 1018.34 1018.30 1018.26 1018.26 1018.26 1018.26 1018.26 1018.22 1018.14 1018.06 1018.02 1018.02 1017.94 1017.86 1017.70 1017.58 1017.46 1017.34 1017.22 1017.10 1016.98 1016.82 1016.70 1016.54 1016.42 1016.30 1016.14 1016.02 1015.86 1015.70 1015.58 1015.46 1015.34 1015.18 1015.02 1014.82 1014.66 1014.46 1014.26 1014.14 1013.98 1013.82 1013.58 1013.38 1013.18 1012.98 1012.70 1012.50 1012.26 1012.10 1011.86 1011.66 1011.46 1011.34 1011.18 1010.98 1010.74
1018.82 1018.82 1018.78 1018.78 1018.74 1018.74 1018.70 1018.62 1018.54 1018.54 1018.50 1018.42 1018.42 1018.34 1018.30 1018.30 1018.30 1018.26 1018.26 1018.22 1018.14 1018.10 1018.02 1017.98 1017.94 1017.86 1017.70 1017.62 1017.50 1017.38 1017.26 1017.10 1016.98 1016.82 1016.70 1016.54 1016.42 1016.26 1016.14 1015.98 1015.86 1015.70 1015.54 1015.42 1015.34 1015.18 1015.02 1014.82 1014.62 1014.42 1014.18 1013.98 1013.86 1013.70 1013.50 1013.26 1013.06 1012.82 1012.58 1012.30 1012.10 1011.90 1011.70 1011.54 1011.34 1011.18 1010.98 1010.82 1010.58
1018.86 1018.86 1018.82 1018.82 1018.78 1018.74 1018.70 1018.66 1018.58 1018.54 1018.54 1018.46 1018.46 1018.42 1018.42 1018.38 1018.34 1018.30 1018.26 1018.22 1018.18 1018.14 1018.06 1017.98 1017.90 1017.82 1017.70 1017.62 1017.50 1017.38 1017.26 1017.10 1016.94 1016.78 1016.66 1016.54 1016.42 1016.26 1016.14 1015.94 1015.82 1015.70 1015.54 1015.38 1015.26 1015.14 1014.98 1014.74 1014.54 1014.38 1014.18 1013.94 1013.74 1013.54 1013.42 1013.22 1012.98 1012.74 1012.50 1012.22 1011.98 1011.78 1011.54 1011.38 1011.22 1011.02 1010.82 1010.62 1010.42
1018.90 1018.90 1018.86 1018.82 1018.82 1018.78 1018.70 1018.66 1018.62 1018.58 1018.58 1018.54 1018.54 1018.50 1018.46 1018.42 1018.42 1018.38 1018.34 1018.26 1018.22 1018.14 1018.06 1017.98 1017.86 1017.78 1017.70 1017.62 1017.46 1017.34 1017.22 1017.06 1016.90 1016.74 1016.62 1016.50 1016.34 1016.22 1016.06 1015.90 1015.74 1015.62 1015.46 1015.34 1015.22 1015.06 1014.86 1014.70 1014.54 1014.30 1014.14 1013.90 1013.66 1013.42 1013.26 1013.02 1012.82 1012.58 1012.34 1012.14 1011.90 1011.66 1011.42 1011.26 1011.06 1010.90 1010.70 1010.50 1010.22
1018.98 1018.94 1018.94 1018.86 1018.86 1018.82 1018.82 1018.74 1018.70 1018.66 1018.62 1018.62 1018.62 1018.54 1018.54 1018.50 1018.46 1018.42 1018.34 1018.26 1018.22 1018.10 1018.02 1017.98 1017.86 1017.74 1017.62 1017.54 1017.42 1017.26 1017.14 1016.98 1016.86 1016.70 1016.58 1016.42 1016.30 1016.14 1016.02 1015.86 1015.70 1015.54 1015.42 1015.26 1015.10 1014.94 1014.78 1014.62 1014.46 1014.26 1014.06 1013.82 1013.54 1013.30 1013.06 1012.86 1012.66 1012.42 1012.18 1011.98 1011.78 1011.54 1011.34 1011.14 1010.94 1010.74 1010.54 1010.34 1010.14
1019.06 1019.06 1019.02 1018.98 1018.94 1018.94 1018.86 1018.82 1018.78 1018.74 1018.70 1018.70 1018.66 1018.62 1018.58 1018.54 1018.50 1018.42 1018.38 1018.30 1018.22 1018.14 1017.98 1017.94 1017.86 1017.70 1017.54 1017.46 1017.38 1017.26 1017.10 1016.94 1016.82 1016.70 1016.54 1016.42 1016.26 1016.14 1015.98 1015.86 1015.70 1015.54 1015.42 1015.22 1015.02 1014.82 1014.62 1014.46 1014.34 1014.18 1013.98 1013.74 1013.46 1013.18 1012.90 1012.70 1012.42 1012.26 1012.02 1011.82 1011.66 1011.42 1011.22 1011.02 1010.82 1010.62 1010.42 1010.22 1009.98
1019.14 1019.14 1019.14 1019.06 1019.02 1018.98 1018.94 1018.86 1018.82 1018.78 1018.74 1018.74 1018.70 1018.70 1018.66 1018.58 1018.54 1018.50 1018.42 1018.34 1018.26 1018.14 1018.02 1017.94 1017.82 1017.70 1017.54 1017.42 1017.34 1017.22 1017.06 1016.94 1016.78 1016.70 1016.58 1016.42 1016.30 1016.14 1015.98 1015.86 1015.70 1015.50 1015.34 1015.14 1014.98 1014.78 1014.54 1014.38 1014.18 1013.98 1013.78 1013.54 1013.30 1013.02 1012.78 1012.54 1012.26 1012.06 1011.86 1011.66 1011.46 1011.26 1011.06 1010.86 1010.70 1010.54 1010.30 1010.10 1009.86
1019.26 1019.26 1019.18 1019.14 1019.10 1019.02 1018.98 1018.90 1018.82 1018.82 1018.82 1018.82 1018.74 1018.70 1018.70 1018.62 1018.58 1018.50 1018.42 1018.30 1018.26 1018.14 1018.02 1017.94 1017.82 1017.66 1017.54 1017.42 1017.30 1017.18 1017.06 1016.94 1016.78 1016.66 1016.54 1016.42 1016.26 1016.10 1015.94 1015.78 1015.58 1015.42 1015.26 1015.10 1014.86 1014.70 1014.50 1014.26 1014.06 1013.86 1013.58 1013.34 1013.10 1012.82 1012.58 1012.38 1012.14 1011.86 1011.70 1011.46 1011.26 1011.06 1010.86 1010.70 1010.58 1010.42 1010.22 1009.98 1009.78
1019.34 1019.30 1019.26 1019.22 1019.14 1019.02 1018.98 1018.94 1018.90 1018.90 1018.90 1018.82 1018.82 1018.74 1018.70 1018.66 1018.58 1018.50 1018.42 1018.30 1018.26 1018.14 1018.06 1017.94 1017.78 1017.62 1017.46 1017.38 1017.26 1017.14 1017.02 1016.90 1016.78 1016.62 1016.50 1016.38 1016.22 1016.02 1015.86 1015.70 1015.54 1015.34 1015.18 1015.02 1014.82 1014.58 1014.42 1014.14 1013.94 1013.70 1013.42 1013.14 1012.86 1012.62 1012.38 1012.14 1011.90 1011.70 1011.50 1011.30 1011.10 1010.90 1010.74 1010.54 1010.42 1010.26 1010.10 1009.90 1009.70
1019.42 1019.38 1019.34 1019.26 1019.14 1019.06 1018.98 1018.98 1018.98 1018.98 1018.94 1018.86 1018.82 1018.78 1018.70 1018.66 1018.54 1018.50 1018.42 1018.34 1018.26 1018.14 1018.02 1017.90 1017.74 1017.58 1017.42 1017.30 1017.18 1017.06 1016.98 1016.82 1016.70 1016.58 1016.42 1016.26 1016.14 1015.98 1015.82 1015.62 1015.42 1015.26 1015.10 1014.90 1014.70 1014.50 1014.26 1014.06 1013.82 1013.54 1013.22 1012.94 1012.66 1012.42 1012.18 1011.94 1011.70 1011.50 1011.34 1011.14 1010.94 1010.74 1010.58 1010.42 1010.26 1010.10 1009.90 1009.74 1009.54
1019.46 1019.42 1019.38 1019.26 1019.14 1019.10 1019.06 1019.02 1019.02 1018.98 1018.94 1018.90 1018.82 1018.78 1018.70 1018.66 1018.58 1018.50 1018.42 1018.34 1018.22 1018.14 1017.98 1017.82 1017.70 1017.54 1017.42 1017.26 1017.14 1016.98 1016.90 1016.78 1016.70 1016.54 1016.42 1016.22 1016.06 1015.94 1015.78 1015.58 1015.38 1015.14 1014.98 1014.78 1014.58 1014.42 1014.14 1013.90 1013.66 1013.38 1013.06 1012.78 1012.46 1012.26 1012.02 1011.82 1011.54 1011.34 1011.14 1010.98 1010.78 1010.58 1010.42 1010.26 1010.10 1009.90 1009.70 1009.54 1009.42
1019.50 1019.42 1019.38 1019.26 1019.14 1019.14 1019.10 1019.10 1019.06 1018.98 1018.94 1018.90 1018.82 1018.78 1018.70 1018.66 1018.54 1018.46 1018.38 1018.26 1018.14 1018.02 1017.90 1017.74 1017.62 1017.50 1017.38 1017.26 1017.14 1016.98 1016.82 1016.70 1016.54 1016.42 1016.30 1016.14 1015.98 1015.82 1015.66 1015.54 1015.30 1015.06 1014.86 1014.70 1014.50 1014.30 1014.02 1013.70 1013.42 1013.18 1012.90 1012.66 1012.34 1012.10 1011.86 1011.70 1011.46 1011.26 1010.98 1010.78 1010.54 1010.42 1010.26 1010.06 1009.94 1009.78 1009.58 1009.42 1009.22
1019.54 1019.42 1019.34 1019.26 1019.18 1019.14 1019.14 1019.14 1019.06 1018.98 1018.94 1018.90 1018.82 1018.78 1018.70 1018.62 1018.54 1018.42 1018.30 1018.18 1018.06 1017.94 1017.82 1017.70 1017.54 1017.42 1017.30 1017.18 1017.06 1016.94 1016.78 1016.58 1016.42 1016.26 1016.14 1016.02 1015.86 1015.70 1015.54 1015.38 1015.18 1014.98 1014.78 1014.62 1014.46 1014.26 1013.98 1013.70 1013.34 1013.02 1012.78 1012.50 1012.26 1011.98 1011.78 1011.58 1011.38 1011.14 1010.90 1010.66 1010.42 1010.22 1010.02 1009.86 1009.78 1009.62 1009.42 1009.26 1009.06
1019.54 1019.42 1019.34 1019.26 1019.22 1019.18 1019.14 1019.14 1019.06 1018.98 1018.94 1018.90 1018.82 1018.74 1018.70 1018.54 1018.46 1018.34 1018.22 1018.06 1017.94 1017.86 1017.70 1017.58 1017.50 1017.34 1017.18 1017.06 1016.98 1016.82 1016.70 1016.54 1016.38 1016.18 1015.98 1015.86 1015.70 1015.58 1015.46 1015.26 1015.02 1014.86 1014.70 1014.54 1014.34 1014.10 1013.86 1013.62 1013.38 1013.06 1012.74 1012.46 1012.22 1011.94 1011.70 1011.50 1011.26 1011.06 1010.82 1010.54 1010.34 1010.10 1009.86 1009.70 1009.54 1009.46 1009.30 1009.10 1008.90
1019.54 1019.42 1019.30 1019.26 1019.26 1019.22 1019.14 1019.14 1019.02 1018.98 1018.94 1018.86 1018.82 1018.70 1018.62 1018.54 1018.42 1018.26 1018.14 1017.98 1017.86 1017.74 1017.66 1017.50 1017.42 1017.22 1017.06 1016.94 1016.82 1016.70 1016.58 1016.42 1016.30 1016.14 1015.98 1015.74 1015.58 1015.42 1015.30 1015.14 1014.98 1014.82 1014.62 1014.42 1014.18 1013.94 1013.70 1013.50 1013.26 1013.02 1012.78 1012.50 1012.18 1011.86 1011.58 1011.26 1011.14 1010.94 1010.70 1010.50 1010.26 1010.06 1009.82 1009.54 1009.38 1009.22 1009.06 1008.94 1008.74
1019.54 1019.42 1019.34 1019.26 1019.22 1019.18 1019.14 1019.10 1019.02 1018.94 1018.86 1018.82 1018.74 1018.66 1018.54 1018.46 1018.30 1018.18 1018.06 1017.94 1017.78 1017.66 1017.54 1017.42 1017.30 1017.14 1016.98 1016.86 1016.70 1016.58 1016.50 1016.34 1016.22 1016.10 1015.90 1015.78 1015.58 1015.38 1015.18 1015.02 1014.86 1014.70 1014.54 1014.30 1014.10 1013.86 1013.54 1013.30 1013.10 1012.86 1012.70 1012.42 1012.18 1011.86 1011.54 1011.26 1010.98 1010.78 1010.58 1010.42 1010.18 1009.98 1009.74 1009.54 1009.26 1009.06 1008.86 1008.70 1008.54
1019.50 1019.42 1019.34 1019.26 1019.22 1019.14 1019.06 1019.02 1018.98 1018.90 1018.82 1018.78 1018.70 1018.58 1018.50 1018.38 1018.26 1018.14 1017.98 1017.86 1017.74 1017.58 1017.46 1017.34 1017.22 1017.10 1016.94 1016.78 1016.66 1016.54 1016.42 1016.26 1016.14 1015.98 1015.82 1015.70 1015.54 1015.34 1015.14 1014.94 1014.78 1014.58 1014.42 1014.22 1013.98 1013.70 1013.42 1013.18 1012.94 1012.74 1012.54 1012.38 1012.10 1011.82 1011.54 1011.22 1010.90 1010.66 1010.46 1010.26 1010.02 1009.86 1009.66 1009.50 1009.26 1008.98 1008.74 1008.54 1008.34
1019.46 1019.38 1019.30 1019.22 1019.14 1019.06 1018.98 1018.98 1018.90 1018.86 1018.82 1018.74 1018.66 1018.54 1018.46 1018.34 1018.18 1018.06 1017.94 1017.82 1017.70 1017.54 1017.38 1017.26 1017.14 1016.98 1016.86 1016.74 1016.58 1016.46 1016.34 1016.22 1016.06 1015.90 1015.74 1015.54 1015.42 1015.22 1015.06 1014.86 1014.70 1014.50 1014.30 1014.10 1013.86 1013.54 1013.30 1013.06 1012.82 1012.62 1012.42 1012.26 1012.02 1011.70 1011.42 1011.14 1010.82 1010.58 1010.34 1010.14 1009.98 1009.78 1009.58 1009.42 1009.14 1008.94 1008.70 1008.46 1008.18
1019.42 1019.30 1019.22 1019.14 1019.06 1019.02 1018.98 1018.94 1018.86 1018.82 1018.78 1018.70 1018.58 1018.46 1018.34 1018.26 1018.14 1017.98 1017.86 1017.78 1017.66 1017.54 1017.38 1017.26 1017.14 1016.98 1016.86 1016.74 1016.58 1016.42 1016.26 1016.14 1015.98 1015.86 1015.70 1015.46 1015.26 1015.06 1014.90 1014.74 1014.54 1014.42 1014.18 1013.98 1013.70 1013.42 1013.18 1012.98 1012.70 1012.50 1012.26 1012.10 1011.90 1011.62 1011.30 1011.02 1010.78 1010.54 1010.26 1010.10 1009.90 1009.70 1009.50 1009.26 1009.06 1008.82 1008.58 1008.38 1008.10
1019.38 1019.26 1019.14 1019.10 1019.02 1018.98 1018.94 1018.94 1018.86 1018.82 1018.74 1018.66 1018.54 1018.42 1018.30 1018.22 1018.10 1017.98 1017.90 1017.78 1017.62 1017.46 1017.38 1017.26 1017.10 1016.94 1016.82 1016.66 1016.54 1016.38 1016.22 1016.02 1015.86 1015.70 1015.54 1015.38 1015.14 1014.94 1014.78 1014.66 1014.46 1014.26 1014.06 1013.82 1013.54 1013.30 1013.10 1012.82 1012.62 1012.38 1012.14 1011.94 1011.70 1011.46 1011.22 1010.98 1010.70 1010.42 1010.22 1009.98 1009.78 1009.58 1009.38 1009.14 1008.94 1008.70 1008.46 1008.22 1007.98
1019.26 1019.14 1019.10 1019.06 1018.98 1018.98 1018.94 1018.90 1018.82 1018.78 1018.70 1018.62 1018.54 1018.42 1018.30 1018.22 1018.10 1017.98 1017.86 1017.74 1017.54 1017.42 1017.26 1017.14 1016.98 1016.82 1016.70 1016.50 1016.38 1016.26 1016.14 1015.98 1015.74 1015.58 1015.42 1015.26 1015.10 1014.86 1014.70 1014.54 1014.34 1014.14 1013.90 1013.70 1013.46 1013.22 1012.98 1012.70 1012.50 1012.26 1012.02 1011.78 1011.54 1011.30 1011.06 1010.82 1010.58 1010.34 1010.10 1009.86 1009.62 1009.42 1009.26 1009.02 1008.82 1008.54 1008.30 1008.10 1007.86
1019.14 1019.10 1019.06 1019.06 1019.02 1018.98 1018.94 1018.86 1018.82 1018.74 1018.66 1018.54 1018.42 1018.38 1018.26 1018.14 1017.98 1017.90 1017.82 1017.66 1017.50 1017.34 1017.22 1017.10 1016.94 1016.78 1016.62 1016.46 1016.26 1016.14 1016.02 1015.86 1015.70 1015.50 1015.30 1015.14 1014.98 1014.82 1014.58 1014.42 1014.22 1013.98 1013.74 1013.54 1013.38 1013.14 1012.86 1012.62 1012.38 1012.14 1011.86 1011.62 1011.42 1011.14 1010.90 1010.70 1010.42 1010.14 1009.90 1009.66 1009.46 1009.26 1009.14 1008.90 1008.70 1008.42 1008.18 1007.98 1007.74
1019.10 1019.06 1019.02 1019.02 1019.02 1018.98 1018.94 1018.86 1018.78 1018.70 1018.58 1018.46 1018.38 1018.26 1018.18 1018.10 1017.94 1017.82 1017.70 1017.54 1017.42 1017.26 1017.14 1017.02 1016.94 1016.82 1016.66 1016.50 1016.34 1016.14 1015.90 1015.70 1015.54 1015.42 1015.22 1015.02 1014.82 1014.66 1014.46 1014.26 1014.10 1013.90 1013.70 1013.46 1013.26 1013.02 1012.74 1012.50 1012.26 1011.98 1011.74 1011.50 1011.22 1010.98 1010.70 1010.42 1010.22 1009.98 1009.70 1009.50 1009.26 1009.10 1008.94 1008.74 1008.50 1008.26 1008.02 1007.82 1007.54
1019.10 1019.06 1019.06 1019.02 1019.02 1018.98 1018.90 1018.82 1018.74 1018.66 1018.54 1018.42 1018.26 1018.18 1018.14 1018.02 1017.94 1017.78 1017.62 1017.46 1017.34 1017.22 1017.10 1016.98 1016.82 1016.70 1016.54 1016.42 1016.26 1016.14 1015.90 1015.62 1015.42 1015.26 1015.14 1014.94 1014.70 1014.46 1014.26 1014.14 1013.94 1013.78 1013.58 1013.38 1013.14 1012.94 1012.66 1012.42 1012.14 1011.86 1011.62 1011.38 1011.10 1010.82 1010.54 1010.26 1009.98 1009.74 1009.54 1009.26 1009.10 1008.90 1008.70 1008.54 1008.34 1008.10 1007.86 1007.62 1007.42
1019.14 1019.14 1019.10 1019.06 1018.98 1018.98 1018.90 1018.82 1018.70 1018.58 1018.50 1018.38 1018.26 1018.14 1017.98 1017.94 1017.86 1017.70 1017.58 1017.42 1017.26 1017.14 1016.98 1016.82 1016.70 1016.54 1016.42 1016.26 1016.14 1015.98 1015.82 1015.58 1015.34 1015.14 1014.98 1014.82 1014.62 1014.38 1014.14 1013.94 1013.78 1013.62 1013.46 1013.26 1013.02 1012.82 1012.54 1012.30 1012.02 1011.74 1011.50 1011.22 1010.94 1010.66 1010.38 1010.10 1009.82 1009.58 1009.38 1009.14 1008.94 1008.70 1008.54 1008.30 1008.10 1007.86 1007.62 1007.42 1007.22
1019.14 1019.14 1019.14 1019.10 1018.98 1018.94 1018.86 1018.78 1018.70 1018.54 1018.42 1018.30 1018.22 1018.10 1017.98 1017.90 1017.74 1017.62 1017.50 1017.34 1017.14 1016.98 1016.86 1016.74 1016.62 1016.42 1016.26 1016.14 1015.98 1015.86 1015.66 1015.50 1015.26 1015.02 1014.82 1014.70 1014.54 1014.34 1014.06 1013.82 1013.66 1013.50 1013.34 1013.14 1012.90 1012.66 1012.42 1012.14 1011.90 1011.66 1011.42 1011.10 1010.74 1010.50 1010.22 1009.98 1009.70 1009.46 1009.26 1008.98 1008.78 1008.54 1008.30 1008.10 1007.86 1007.58 1007.38 1007.22 1007.14
1019.14 1019.14 1019.14 1019.10 1018.98 1018.90 1018.82 1018.74 1018.66 1018.54 1018.42 1018.26 1018.14 1018.06 1017.98 1017.86 1017.70 1017.54 1017.42 1017.26 1017.14 1016.98 1016.82 1016.66 1016.54 1016.38 1016.18 1016.06 1015.86 1015.66 1015.50 1015.38 1015.22 1014.98 1014.74 1014.54 1014.42 1014.26 1013.98 1013.70 1013.50 1013.34 1013.22 1013.02 1012.78 1012.54 1012.30 1012.06 1011.78 1011.54 1011.26 1010.98 1010.70 1010.42 1010.14 1009.86 1009.66 1009.42 1009.14 1008.86 1008.58 1008.34 1008.14 1007.86 1007.58 1007.34 1007.14 1007.10 1007.06
1019.14 1019.14 1019.14 1019.06 1018.98 1018.90 1018.82 1018.70 1018.58 1018.50 1018.42 1018.26 1018.14 1017.98 1017.90 1017.78 1017.62 1017.46 1017.34 1017.26 1017.14 1016.98 1016.82 1016.62 1016.46 1016.30 1016.14 1015.94 1015.70 1015.46 1015.26 1015.14 1015.06 1014.90 1014.66 1014.46 1014.30 1014.14 1013.98 1013.70 1013.42 1013.22 1013.06 1012.90 1012.70 1012.42 1012.22 1011.94 1011.70 1011.42 1011.14 1010.86 1010.62 1010.34 1010.10 1009.86 1009.54 1009.30 1009.02 1008.74 1008.42 1008.14 1007.86 1007.58 1007.38 1007.18 1007.10 1007.02 1006.94
1019.14 1019.14 1019.10 1019.02 1018.98 1018.86 1018.78 1018.70 1018.54 1018.46 1018.38 1018.26 1018.10 1017.98 1017.86 1017.70 1017.54 1017.42 1017.26 1017.18 1017.10 1016.98 1016.82 1016.58 1016.42 1016.22 1016.02 1015.86 1015.58 1015.34 1015.14 1014.94 1014.82 1014.70 1014.54 1014.38 1014.18 1014.02 1013.86 1013.62 1013.34 1013.14 1012.94 1012.78 1012.54 1012.30 1012.06 1011.78 1011.54 1011.26 1010.98 1010.78 1010.54 1010.30 1010.06 1009.78 1009.50 1009.18 1008.86 1008.58 1008.26 1007.94 1007.58 1007.34 1007.26 1007.14 1007.06 1006.90 1006.70
1019.14 1019.10 1019.02 1018.98 1018.90 1018.82 1018.74 1018.62 1018.50 1018.42 1018.30 1018.18 1018.06 1017.94 1017.78 1017.62 1017.46 1017.34 1017.22 1017.10 1016.98 1016.86 1016.70 1016.50 1016.26 1016.10 1015.94 1015.78 1015.54 1015.26 1015.02 1014.78 1014.58 1014.50 1014.38 1014.22 1014.06 1013.90 1013.74 1013.50 1013.26 1012.98 1012.82 1012.66 1012.42 1012.14 1011.90 1011.66 1011.42 1011.14 1010.90 1010.70 1010.50 1010.26 1010.02 1009.74 1009.42 1009.02 1008.70 1008.42 1008.14 1007.78 1007.46 1007.22 1007.14 1007.10 1006.94 1006.70 1006.42
Thickness
5603 5602 5601 5600 5599 5597 5596 5595 5593 5592 5590 5589 5588 5586 5584 5583 5581 5579 5578 5576 5574 5573 5571 5569 5567 5565 5563 5561 5560 5558 5557 5555 5553 5551 5549 5548 5546 5544 5543 5541 5539 5538 5536 5535 5533 5532 5530 5529 5527 5526 5525 5524 5522 5520 5518 5516 5513 5511 5508 5505 5504 5502 5500 5499 5497 5495 5492 5489 5487
5599 5598 5597 5596 5595 5594 5592 5591 5589 5587 5586 5585 5583 5581 5580 5578 5577 5575 5573 5571 5568 5567 5565 5563 5562 5560 5558 5556 5554 5553 5551 5550 5548 5546 5544 5542 5541 5539 5537 5535 5533 5532 5531 5529 5527 5526 5524 5523 5522 5520 5519 5517 5515 5514 5511 5508 5506 5504 5502 5499 5497 5495 5494 5492 5490 5487 5485 5482 5479
5595 5594 5593 5592 5591 5590 5589 5587 5585 5584 5583 5581 5579 5577 5576 5573 5572 5570 5567 5565 5563 5562 5560 5558 5556 5554 5553 5551 5549 5547 5546 5544 5543 5541 5539 5537 5536 5533 5532 5530 5528 5526 5525 5523 5521 5519 5518 5517 5515 5514 5513 5511 5509 5507 5505 5502 5499 5497 5495 5493 5491 5488 5486 5484 5482 5480 5477 5474 5471
5591 5590 5589 5588 5587 5586 5584 5583 5581 5580 5578 5576 5575 5573 5571 5569 5566 5564 5562 5560 5558 5557 5554 5553 5551 5549 5548 5545 5544 5542 5541 5539 5538 5536 5534 5532 5530 5528 5526 5524 5523 5521 5519 5517 5515 5514 5511 5510 5509 5508 5507 5504 5502 5500 5498 5495 5493 5490 5488 5485 5483 5481 5479 5476 5474 5471 5469 5467 5463
5587 5587 5586 5584 5583 5582 5580 5578 5577 5575 5574 5572 5570 5569 5566 5564 5561 5559 5557 5556 5553 5551 5549 5547 5546 5544 5542 5540 5538 5537 5535 5533 5533 5530 5529 5527 5525 5523 5521 5519 5518 5516 5514 5512 5510 5508 5506 5504 5503 5501 5500 5498 5496 5493 5491 5488 5485 5483 5480 5478 5475 5473 5471 5469 5466 5463 5461 5458 5455
5584 5583 5581 5580 5578 5577 5576 5574 5572 5571 5570 5568 5566 5564 5562 5559 5557 5554 5553 5550 5548 5546 5544 5543 5541 5539 5537 5535 5534 5532 5530 5529 5527 5525 5524 5522 5520 5518 5516 5514 5512 5510 5508 5507 5504 5502 5500 5499 5497 5495 5494 5491 5490 5487 5483 5481 5478 5476 5474 5472 5468 5466 5463 5461 5458 5455 5453 5451 5448
5580 5579 5577 5576 5575 5573 5571 5570 5568 5567 5565 5564 5562 5559 5557 5554 5552 5550 5548 5546 5544 5541 5540 5538 5536 5534 5532 5530 5529 5527 5526 5524 5522 5521 5519 5517 5515 5513 5511 5509 5507 5505 5503 5501 5499 5497 5495 5492 5491 5490 5488 5485 5483 5480 5477 5474 5471 5469 5466 5465 5462 5459 5456 5453 5451 5448 5445 5444 5441
5576 5575 5573 5571 5570 5569 5567 5565 5564 5563 5561 5559 5557 5555 5552 5550 5548 5546 5543 5541 5539 5537 5535 5533 5531 5529 5527 5526 5524 5523 5521 5520 5518 5516 5514 5512 5510 5508 5506 5504 5502 5500 5497 5495 5494 5491 5489 5487 5485 5483 5481 5479 5476 5474 5471 5467 5465 5462 5460 5458 5456 5452 5449 5446 5443 5441 5439 5436 5434
5572 5570 5569 5568 5566 5564 5563 5561 5559 5558 5556 5555 5553 5550 5548 5545 5543 5541 5539 5537 5535 5533 5530 5528 5526 5524 5522 5521 5520 5517 5516 5515 5513 5511 5509 5507 5505 5503 5501 5499 5497 5494 5492 5489 5488 5486 5483 5481 5479 5476 5474 5472 5470 5467 5464 5461 5459 5457 5454 5451 5449 5446 5443 5439 5436 5434 5433 5430 5427
5568 5567 5565 5564 5562 5560 5558 5557 5555 5554 5552 5550 5548 5546 5543 5541 5539 5536 5534 5532 5530 5528 5526 5524 5522 5520 5518 5517 5515 5513 5511 5509 5508 5506 5503 5501 5500 5498 5495 5493 5491 5489 5487 5484 5482 5480 5477 5475 5473 5470 5467 5465 5463 5461 5458 5454 5452 5450 5448 5445 5443 5440 5437 5433 5430 5428 5426 5423 5421
5564 5563 5561 5559 5557 5556 5554 5552 5551 5549 5547 5546 5543 5541 5539 5537 5534 5532 5529 5527 5525 5523 5521 5518 5517 5515 5513 5511 5510 5508 5506 5504 5502 5500 5498 5496 5494 5491 5490 5487 5485 5482 5480 5478 5476 5473 5471 5469 5467 5465 5462 5458 5456 5454 5452 5449 5446 5444 5441 5439 5436 5434 5431 5428 5424 5421 5418 5417 5415
5561 5559 5557 5555 5553 5551 5550 5548 5546 5545 5543 5541 5539 5537 5535 5532 5530 5527 5525 5522 5521 5519 5517 5514 5512 5510 5508 5507 5505 5503 5501 5499 5496 5495 5493 5491 5489 5486 5484 5481 5479 5476 5474 5471 5469 5467 5465 5463 5460 5459 5457 5454 5450 5448 5445 5443 5441 5438 5435 5433 5430 5427 5425 5422 5419 5415 5412 5410 5408
5556 5554 5553 5551 5549 5547 5546 5544 5542 5540 5539 5536 5535 5532 5530 5528 5525 5523 5521 5518 5516 5514 5512 5510 5507 5506 5504 5501 5499 5498 5496 5494 5492 5489 5487 5485 5483 5481 5478 5476 5473 5470 5468 5465 5462 5460 5458 5455 5454 5452 5450 5448 5445 5442 5439 5436 5434 5431 5429 5426 5423 5421 5418 5415 5412 5409 5406 5403 5401
5553 5551 5549 5547 5545 5544 5542 5540 5538 5536 5534 5532 5530 5527 5525 5523 5521 5518 5516 5514 5512 5510 5508 5505 5503 5501 5499 5497 5495 5493 5491 5489 5487 5484 5482 5480 5477 5475 5472 5470 5467 5464 5462 5459 5456 5453 5452 5450 5447 5445 5443 5441 5439 5436 5432 5430 5426 5424 5422 5419 5417 5414 5411 5408 5405 5402 5400 5398 5395
5549 5547 5545 5543 5542 5540 5538 5536 5534 5532 5530 5527 5525 5523 5521 5519 5517 5514 5512 5509 5507 5505 5503 5501 5499 5497 5494 5492 5491 5488 5485 5483 5481 5480 5477 5474 5472 5469 5466 5464 5461 5459 5455 5453 5450 5447 5445 5442 5440 5438 5436 5434 5432 5429 5427 5424 5420 5418 5415 5412 5409 5407 5404 5401 5398 5396 5393 5391 5389
5545 5543 5541 5540 5537 5536 5534 5532 5530 5528 5525 5523 5520 5518 5516 5514 5512 5510 5507 5505 5503 5501 5499 5497 5494 5492 5490 5488 5486 5484 5481 5478 5477 5474 5472 5469 5466 5463 5461 5458 5455 5453 5449 5447 5445 5442 5439 5436 5434 5431 5429 5427 5425 5422 5420 5417 5414 5412 5409 5406 5403 5400 5397 5395 5392 5389 5387 5385 5382
5541 5539 5537 5535 5533 5531 5529 5527 5525 5523 5521 5518 5516 5514 5511 5509 5507 5505 5503 5501 5499 5497 5494 5492 5490 5488 5486 5483 5480 5479 5476 5474 5471 5468 5466 5463 5460 5458 5455 5452 5449 5446 5443 5441 5438 5436 5433 5431 5427 5425 5422 5420 5418 5416 5414 5411 5408 5406 5403 5400 5397 5394 5392 5389 5386 5383 5381 5378 5376
5537 5534 5533 5531 5529 5527 5525 5523 5521 5518 5516 5514 5512 5509 5507 5505 5503 5501 5498 5496 5494 5493 5490 5487 5485 5483 5481 5479 5475 5473 5471 5469 5466 5463 5460 5457 5454 5451 5449 5446 5443 5439 5437 5434 5432 5429 5427 5425 5422 5419 5416 5414 5412 5410 5407 5406 5403 5401 5398 5395 5392 5389 5386 5383 5380 5377 5374 5372 5370
5532 5530 5529 5526 5524 5523 5521 5519 5517 5514 5512 5509 5508 5505 5503 5500 5498 5496 5494 5491 5489 5488 5485 5483 5480 5478 5476 5473 5471 5468 5465 5463 5460 5457 5454 5451 5448 5445 5442 5440 5436 5433 5430 5428 5425 5423 5420 5418 5416 5413 5411 5409 5407 5405 5403 5401 5398 5395 5392 5390 5388 5384 5381 5378 5375 5371 5368 5366 5364
5528 5526 5524 5522 5520 5518 5516 5514 5512 5509 5507 5505 5503 5500 5498 5495 5494 5492 5489 5487 5485 5483 5480 5478 5476 5473 5471 5469 5466 5463 5460 5457 5454 5451 5448 5445 5442 5439 5436 5434 5430 5427 5424 5421 5419 5416 5414 5411 5409 5407 5405 5404 5402 5399 5398 5395 5393 5390 5387 5385 5382 5380 5377 5373 5370 5366 5363 5360 5357
5523 5521 5519 5517 5516 5514 5512 5510 5507 5505 5502 5500 5498 5496 5494 5491 5489 5487 5484 5482 5480 5478 5475 5473 5471 5469 5466 5464 5461 5458 5454 5451 5448 5445 5442 5439 5435 5433 5430 5428 5425 5421 5418 5415 5412 5410 5407 5405 5403 5401 5400 5398 5397 5394 5392 5390 5388 5386 5383 5380 5377 5375 5371 5368 5365 5362 5358 5354 5351
5519 5517 5515 5513 5511 5510 5507 5505 5503 5500 5498 5496 5494 5492 5489 5487 5484 5482 5480 5477 5475 5473 5471 5468 5466 5463 5461 5458 5456 5452 5449 5446 5442 5439 5436 5433 5430 5427 5423 5421 5418 5416 5413 5410 5406 5404 5402 5400 5397 5395 5394 5393 5391 5389 5387 5384 5382 5380 5378 5376 5372 5370 5367 5363 5360 5356 5352 5349 5346
5514 5512 5510 5509 5507 5505 5503 5500 5498 5496 5493 5491 5489 5487 5485 5483 5480 5478 5475 5473 5471 5468 5466 5463 5461 5458 5456 5452 5449 5447 5444 5441 5438 5434 5431 5428 5425 5422 5418 5415 5412 5409 5407 5403 5400 5397 5396 5394 5392 5390 5388 5386 5385 5383 5382 5380 5377 5375 5373 5370 5368 5365 5362 5358 5355 5351 5347 5344 5340
5510 5508 5506 5505 5502 5500 5498 5496 5493 5491 5490 5487 5485 5483 5480 5478 5476 5473 5471 5469 5466 5464 5461 5459 5456 5453 5450 5447 5444 5441 5438 5436 5433 5430 5426 5423 5419 5417 5414 5410 5407 5404 5401 5397 5394 5391 5388 5386 5385 5383 5381 5379 5379 5377 5375 5374 5371 5369 5367 5365 5362 5360 5356 5353 5349 5346 5342 5339 5335
5506 5504 5502 5501 5498 5496 5494 5492 5490 5487 5485 5483 5481 5478 5476 5474 5472 5470 5467 5465 5462 5460 5457 5454 5451 5448 5446 5442 5439 5435 5432 5430 5428 5425 5422 5419 5415 5411 5408 5405 5402 5399 5395 5392 5389 5386 5383 5381 5378 5376 5374 5373 5372 5371 5369 5367 5365 5363 5361 5359 5356 5353 5350 5347 5343 5340 5336 5333 5331
5502 5500 5499 5496 5494 5492 5490 5487 5485 5483 5481 5479 5476 5474 5472 5470 5468 5465 5463 5460 5458 5455 5452 5449 5446 5444 5441 5438 5434 5431 5428 5425 5422 5419 5417 5414 5411 5407 5403 5400 5396 5393 5390 5387 5385 5382 5379 5376 5373 5370 5367 5366 5365 5364 5363 5362 5359 5357 5355 5352 5349 5347 5344 5341 5338 5335 5331 5328 5325
5498 5496 5494 5492 5490 5488 5485 5483 5481 5479 5477 5474 5472 5470 5468 5465 5463 5461 5459 5456 5453 5450 5447 5445 5442 5439 5436 5432 5430 5426 5423 5420 5417 5414 5411 5408 5405 5402 5399 5395 5391 5388 5385 5382 5380 5377 5375 5372 5369 5366 5363 5360 5358 5357 5357 5356 5354 5352 5349 5346 5343 5340 5337 5334 5331 5328 5326 5323 5320
5494 5492 5490 5488 5486 5484 5481 5479 5477 5475 5473 5470 5468 5465 5463 5461 5459 5456 5454 5451 5448 5446 5443 5440 5436 5434 5431 5428 5425 5422 5418 5415 5412 5409 5406 5403 5399 5396 5394 5390 5387 5383 5380 5377 5375 5373 5370 5368 5365 5362 5359 5356 5354 5352 5351 5350 5348 5346 5343 5341 5337 5334 5330 5327 5324 5322 5319 5318 5315
5490 5488 5486 5485 5482 5480 5478 5475 5473 5471 5468 5466 5463 5461 5458 5456 5454 5452 5449 5447 5444 5441 5438 5436 5432 5429 5425 5423 5420 5417 5413 5410 5407 5404 5401 5398 5395 5392 5388 5385 5382 5378 5375 5372 5370 5369 5366 5363 5361 5358 5355 5352 5349 5347 5345 5344 5342 5340 5337 5335 5331 5327 5323 5320 5317 5315 5313 5311 5310
5486 5485 5483 5481 5478 5477 5474 5471 5469 5466 5463 5461 5459 5456 5454 5452 5449 5447 5445 5442 5439 5436 5433 5430 5427 5424 5421 5417 5414 5412 5409 5405 5401 5398 5395 5394 5391 5388 5384 5381 5377 5373 5371 5368 5366 5364 5362 5359 5357 5353 5351 5348 5345 5343 5341 5339 5337 5334 5331 5328 5325 5321 5318 5314 5312 5310 5307 5305 5304
5483 5481 5479 5476 5475 5472 5469 5467 5464 5461 5459 5457 5454 5452 5449 5447 5445 5442 5439 5437 5434 5431 5428 5425 5422 5419 5416 5412 5410 5406 5403 5401 5397 5393 5390 5388 5386 5383 5379 5376 5372 5369 5367 5364 5362 5359 5357 5355 5352 5349 5346 5344 5342 5339 5337 5334 5332 5329 5326 5323 5319 5316 5312 5309 5307 5304 5303 5301 5299
5480 5478 5475 5473 5470 5468 5465 5463 5460 5457 5454 5452 5450 5447 5445 5442 5439 5437 5434 5432 5429 5427 5423 5420 5418 5415 5412 5409 5405 5402 5398 5395 5393 5390 5386 5383 5380 5377 5374 5372 5368 5366 5363 5360 5357 5355 5352 5350 5347 5345 5342 5339 5337 5335 5332 5330 5327 5324 5321 5318 5315 5311 5308 5305 5302 5300 5298 5296 5295
5476 5473 5471 5469 5466 5463 5461 5458 5455 5453 5451 5448 5446 5443 5440 5438 5435 5432 5430 5427 5425 5422 5419 5416 5413 5410 5406 5404 5400 5397 5394 5390 5387 5385 5381 5378 5376 5372 5369 5367 5364 5362 5359 5356 5353 5350 5348 5345 5343 5340 5338 5335 5333 5331 5329 5325 5323 5321 5318 5315 5311 5307 5304 5301 5298 5297 5294 5292 5291
5472 5470 5467 5464 5461 5459 5456 5453 5451 5449 5446 5443 5441 5438 5436 5433 5431 5428 5426 5423 5420 5417 5414 5411 5408 5404 5401 5398 5395 5392 5389 5386 5382 5379 5376 5374 5371 5369 5366 5363 5360 5357 5354 5351 5348 5346 5343 5340 5338 5335 5333 5331 5328 5326 5325 5322 5319 5316 5313 5311 5307 5304 5301 5298 5295 5293 5291 5290 5287
5468 5465 5462 5459 5457 5454 5452 5449 5446 5444 5441 5439 5437 5434 5431 5428 5426 5424 5421 5419 5416 5413 5410 5406 5402 5399 5396 5393 5389 5386 5384 5381 5378 5374 5371 5368 5367 5365 5363 5359 5356 5352 5350 5347 5344 5341 5338 5336 5333 5330 5328 5326 5324 5323 5320 5318 5316 5313 5310 5307 5304 5301 5298 5295 5293 5291 5288 5287 5285
5463 5461 5458 5455 5452 5450 5447 5444 5442 5440 5437 5435 5432 5430 5427 5424 5421 5419 5416 5415 5412 5409 5405 5402 5399 5396 5392 5389 5385 5382 5378 5376 5374 5370 5366 5363 5362 5361 5359 5356 5353 5349 5346 5343 5340 5337 5334 5331 5328 5326 5323 5321 5320 5318 5316 5314 5312 5309 5306 5303 5300 5297 5295 5293 5291 5289 5287 5285 5282
5458 5456 5453 5450 5448 5445 5442 5440 5438 5435 5432 5430 5428 5425 5422 5420 5418 5414 5411 5409 5407 5405 5402 5398 5395 5392 5389 5386 5382 5378 5374 5371 5368 5366 5363 5359 5356 5355 5354 5352 5349 5346 5343 5340 5337 5333 5330 5327 5324 5321 5319 5317 5315 5313 5311 5309 5307 5304 5302 5299 5297 5295 5293 5290 5289 5287 5285 5283 5279
5453 5451 5448 5446 5443 5440 5438 5435 5433 5430 5428 5425 5423 5421 5418 5416 5413 5410 5407 5404 5403 5400 5397 5393 5390 5387 5384 5381 5378 5375 5371 5366 5363 5361 5358 5355 5352 5350 5349 5347 5345 5342 5338 5336 5333 5330 5326 5323 5320 5317 5315 5312 5310 5308 5306 5304 5302 5300 5297 5295 5293 5292 5290 5288 5287 5286 5283 5280 5277
5449 5447 5443 5441 5438 5436 5433 5431 5428 5426 5424 5421 5419 5416 5414 5411 5408 5405 5402 5399 5397 5393 5392 5389 5385 5382 5379 5376 5374 5371 5368 5364 5359 5356 5354 5352 5349 5345 5344 5343 5341 5338 5334 5331 5329 5326 5323 5319 5316 5313 5311 5308 5305 5303 5301 5299 5297 5295 5292 5291 5290 5289 5288 5286 5285 5283 5280 5277 5275
5445 5442 5439 5437 5434 5431 5429 5426 5424 5421 5419 5416 5414 5411 5409 5406 5404 5401 5398 5394 5391 5388 5386 5383 5380 5377 5374 5371 5369 5367 5364 5361 5356 5353 5350 5348 5345 5342 5339 5338 5337 5334 5331 5327 5325 5323 5319 5316 5313 5310 5307 5303 5301 5298 5296 5294 5292 5290 5289 5287 5287 5286 5286 5284 5282 5280 5278 5275 5272
5440 5437 5435 5432 5429 5427 5425 5422 5419 5417 5414 5411 5409 5407 5404 5402 5399 5396 5393 5390 5386 5383 5380 5378 5376 5372 5369 5366 5364 5362 5360 5358 5354 5350 5347 5345 5342 5339 5336 5334 5333 5331 5327 5324 5322 5320 5317 5313 5310 5307 5303 5299 5296 5293 5291 5288 5287 5286 5285 5284 5283 5283 5283 5281 5279 5277 5275 5273 5272